Location: Unspecified
(0.0000°N, 0.0000°E)
Time: 11:17:20
(UTC+00:00)

Explorer 11/Cluster Stage 4 - Pass Details

Date: 19 November 2019
Orbit: 467 x 1259 km, 28.8° (Epoch: 13 December)

Event Time Altitude Azimuth Distance (km) Brightness Sun altitude
Rises 23:29:18 0° 334° (NNW) 3,904 - -70.0°
Reaches altitude 10° 23:35:40 10° 13° (NNE) 3,125 - -70.3°
Maximum altitude 23:36:45 10° 21° (NNE) 3,124 - -70.3°
Drops below altitude 10° 23:37:52 10° 29° (NNE) 3,168 - -70.3°
Sets 23:44:37 0° 67° (ENE) 4,196 - -70.4°
